Regional Weather Roundup
Issued by NWS

Home | Current Version | Previous Version | Graphics & Text | Print | Product List | Glossary On
Versions: 1 2 3 4 5 6 7 8 9 10 11 12 13 14 15 16 17 18 19 20 21 22 23 24 25 26 27 28 29 30 31 32 33 34 35 36 37 38 39 40 41 42 43 44 45 46 47 48 49 50
112
ASUS43 KFSD 210410
RWRSD

WEATHER ROUNDUP FOR SOUTH DAKOTA
NATIONAL WEATHER SERVICE SIOUX FALLS SD
1100 PM CDT FRI APR 20 2018

NOTE: "FAIR" INDICATES FEW OR NO CLOUDS BELOW 12,000 FEET WITH NO
SIGNIFICANT WEATHER AND/OR OBSTRUCTIONS TO VISIBILITY.


SDZ001>005-009-010-012>017-210500-
NORTHWEST AND NORTH CENTRAL SOUTH DAKOTA

CITY           SKY/WX    TMP DP  RH WIND       PRES   REMARKS
BUFFALO          N/A     40  36  86 SE23      30.12
FAITH            N/A     41  41 100 S14       30.25S
MOBRIDGE       CLOUDY    45  37  73 SE9       30.28F
$$

SDZ012>016-024>037-041>051-057-063-072>074-210500-
SOUTHWEST AND SOUTH CENTRAL SOUTH DAKOTA

CITY           SKY/WX    TMP DP  RH WIND       PRES   REMARKS
RAPID CTY ARPT CLOUDY    39  38  96 SE12      30.23S
PIERRE         CLOUDY    41  41 100 SE9       30.31F
CUSTER         FOG       32  30  92 VRB6      30.18R VSB 1/4 WCI  26
ELLSWORTH AFB  CLOUDY    39  39 100 S13       30.22
PHILIP         CLOUDY    42  40  92 SE12      30.27S
PINE RIDGE     CLOUDY    39  37  92 E9        30.24R
SPEARFISH      CLOUDY    39  36  87 E9        30.17S
WINNER         FAIR      40  35  83 E6        30.31F
$$

SDZ004>011-016>023-039-040-210500-
NORTHEAST SOUTH DAKOTA

CITY           SKY/WX    TMP DP  RH WIND       PRES   REMARKS
ABERDEEN       MOCLDY    39  36  89 S8        30.36S
WATERTOWN      CLOUDY    38  36  92 S6        30.37S
BROOKINGS      CLOUDY    39  33  79 SE8       30.39F
SISSETON         N/A     38  36  92 SE5       30.38S
$$

SDZ017-020-022-023-036>040-048>070-210500-
SOUTHEAST SOUTH DAKOTA

CITY           SKY/WX    TMP DP  RH WIND       PRES   REMARKS
SIOUX FALLS    CLOUDY    41  34  76 E5        30.39S
HURON          CLOUDY    42  37  82 SE5       30.36F
CHAMBERLAIN    DRIZZLE   43  43 100 E5        30.34F
MITCHELL       CLOUDY    41  37  86 S8        30.38F
YANKTON        LGT RAIN  43  38  82 NE8       30.37F
$$

ABBREVIATIONS USED IN REMARKS
   TC - TEMPERATURE IN CELSIUS
  WCI - WIND CHILL INDEX
   HX - HEAT INDEX
  VSB - VISIBILITY





USA.gov is the U.S. government's official web portal to all federal, state and local government web resources and services.